• Em Portugal
  • Lista de países
  • Para 7 dias
  • Temperatura da água
  • Mapas de satélite
  • Mapa do tempo
  • Widgets de tempo
  • user-avatar
    Iniciar Sessão

    Previsão horária em Babino

    Hoje, 21 Maio, Segunda-feira

    Tempo Temperatura Precipitação Vento Pressão Humidade
    00:00 +8°C° 0 mm 1 m/s 757 mmHg 73%
    01:00 +8°C° 0 mm 1 m/s 757 mmHg 74%
    02:00 +7°C° 0 mm 1 m/s 757 mmHg 80%
    03:00 +7°C° 0 mm 1 m/s 758 mmHg 79%
    04:00 +7°C° 0 mm 1 m/s 758 mmHg 78%
    05:00 +8°C° 0 mm 1 m/s 758 mmHg 78%
    06:00 +10°C° 0 mm 1 m/s 758 mmHg 70%
    07:00 +13°C° 0 mm 2 m/s 759 mmHg 63%
    08:00 +15°C° 0 mm 2 m/s 759 mmHg 56%
    09:00 +17°C° 0 mm 2 m/s 759 mmHg 51%
    10:00 +18°C° 0 mm 3 m/s 759 mmHg 45%
    11:00 +20°C° 0 mm 3 m/s 759 mmHg 40%
    12:00 +20°C° 0 mm 3 m/s 758 mmHg 38%
    13:00 +21°C° 0 mm 3 m/s 758 mmHg 37%
    14:00 +22°C° 0 mm 4 m/s 758 mmHg 36%
    15:00 +22°C° 0 mm 3 m/s 758 mmHg 38%
    16:00 +21°C° 0 mm 3 m/s 758 mmHg 40%
    17:00 +21°C° 0 mm 3 m/s 757 mmHg 42%
    18:00 +19°C° 0 mm 2 m/s 757 mmHg 51%
    19:00 +17°C° 0 mm 2 m/s 757 mmHg 60%
    20:00 +15°C° 0 mm 2 m/s 757 mmHg 69%
    21:00 +14°C° 0 mm 2 m/s 757 mmHg 71%
    22:00 +12°C° 0 mm 2 m/s 758 mmHg 73%
    23:00 +10°C° 0 mm 2 m/s 758 mmHg 75%

    Amanhã, 22 Maio, Terça-feira

    Tempo Temperatura Precipitação Vento Pressão Humidade
    00:00 +10°C° 0 mm 2 m/s 758 mmHg 77%
    01:00 +9°C° 0 mm 2 m/s 758 mmHg 79%
    02:00 +9°C° 0 mm 2 m/s 758 mmHg 81%
    03:00 +9°C° 0 mm 2 m/s 757 mmHg 80%
    04:00 +10°C° 0 mm 2 m/s 757 mmHg 79%
    05:00 +10°C° 0 mm 2 m/s 757 mmHg 78%
    06:00 +12°C° 0 mm 2 m/s 757 mmHg 74%
    07:00 +14°C° 0 mm 2 m/s 757 mmHg 70%
    08:00 +14°C° 0 mm 3 m/s 757 mmHg 67%
    09:00 +14°C° 0 mm 3 m/s 757 mmHg 65%
    10:00 +16°C° 0 mm 3 m/s 756 mmHg 62%
    11:00 +15°C° 0 mm 4 m/s 756 mmHg 60%
    12:00 +16°C° 0 mm 3 m/s 756 mmHg 63%
    13:00 +16°C° 0 mm 3 m/s 756 mmHg 67%
    14:00 +16°C° 0 mm 3 m/s 755 mmHg 70%
    15:00 +16°C° 0 mm 2 m/s 755 mmHg 74%
    16:00 +15°C° 0 mm 2 m/s 755 mmHg 79%
    17:00 +15°C° 0 mm 2 m/s 754 mmHg 83%
    18:00 +14°C° 0 mm 1 m/s 754 mmHg 86%
    19:00 +14°C° 0 mm 1 m/s 754 mmHg 89%
    20:00 +13°C° 0 mm 1 m/s 754 mmHg 93%
    21:00 +13°C° 0 mm 1 m/s 754 mmHg 94%
    22:00 +13°C° 0 mm 1 m/s 754 mmHg 95%
    23:00 +13°C° 0 mm 1 m/s 754 mmHg 96%

    Depois de amanhã, 23 Maio, Quarta-feira

    Tempo Temperatura Precipitação Vento Pressão Humidade
    00:00 +12°C° 0 mm 1 m/s 754 mmHg 97%
    01:00 +12°C° 0 mm 1 m/s 754 mmHg 97%
    02:00 +11°C° 0 mm 1 m/s 753 mmHg 98%
    03:00 +11°C° 0 mm 1 m/s 753 mmHg 98%
    04:00 +11°C° 0 mm 1 m/s 753 mmHg 97%
    05:00 +12°C° 0 mm 1 m/s 753 mmHg 97%
    06:00 +14°C° 0 mm 1 m/s 753 mmHg 91%
    07:00 +15°C° 0 mm 2 m/s 753 mmHg 85%
    08:00 +17°C° 0 mm 2 m/s 753 mmHg 80%
    09:00 +18°C° 1,2 mm 2 m/s 753 mmHg 78%
    10:00 +19°C° 1,2 mm 3 m/s 753 mmHg 77%
    11:00 +20°C° 1,2 mm 3 m/s 753 mmHg 76%
    12:00 +20°C° 1,2 mm 3 m/s 753 mmHg 76%
    13:00 +20°C° 1,2 mm 3 m/s 753 mmHg 76%
    14:00 +20°C° 1,2 mm 3 m/s 753 mmHg 76%
    15:00 +20°C° 0,4 mm 3 m/s 752 mmHg 74%
    16:00 +20°C° 0,4 mm 3 m/s 752 mmHg 72%
    17:00 +20°C° 0,4 mm 2 m/s 752 mmHg 70%
    18:00 +19°C° 0 mm 2 m/s 753 mmHg 76%
    19:00 +17°C° 0 mm 2 m/s 753 mmHg 83%
    20:00 +16°C° 0 mm 2 m/s 753 mmHg 89%
    21:00 +15°C° 0 mm 1 m/s 753 mmHg 91%
    22:00 +14°C° 0 mm 1 m/s 754 mmHg 93%
    23:00 +13°C° 0 mm 1 m/s 754 mmHg 95%

    24 Maio, Quinta-feira

    Tempo Temperatura Precipitação Vento Pressão Humidade
    00:00 +12°C° 0 mm 1 m/s 754 mmHg 95%
    01:00 +12°C° 0 mm 1 m/s 754 mmHg 96%
    02:00 +11°C° 0 mm 1 m/s 755 mmHg 96%
    03:00 +11°C° 0 mm 1 m/s 755 mmHg 96%
    04:00 +11°C° 0 mm 1 m/s 755 mmHg 95%
    05:00 +12°C° 0 mm 1 m/s 755 mmHg 95%
    06:00 +13°C° 0 mm 2 m/s 756 mmHg 87%
    07:00 +15°C° 0 mm 2 m/s 756 mmHg 79%
    08:00 +17°C° 0 mm 2 m/s 756 mmHg 71%
    09:00 +18°C° 0 mm 2 m/s 756 mmHg 66%
    10:00 +19°C° 0 mm 3 m/s 756 mmHg 61%
    11:00 +21°C° 0 mm 3 m/s 756 mmHg 56%
    12:00 +21°C° 0 mm 3 m/s 756 mmHg 54%
    13:00 +22°C° 0 mm 3 m/s 755 mmHg 53%
    14:00 +24°C° 0 mm 3 m/s 755 mmHg 51%
    15:00 +22°C° 0,1 mm 3 m/s 755 mmHg 54%
    16:00 +22°C° 0,1 mm 3 m/s 755 mmHg 58%
    17:00 +22°C° 0,1 mm 3 m/s 755 mmHg 61%
    18:00 +20°C° 0 mm 3 m/s 755 mmHg 69%
    19:00 +18°C° 0 mm 3 m/s 756 mmHg 77%
    20:00 +17°C° 0 mm 2 m/s 756 mmHg 85%
    21:00 +16°C° 0 mm 2 m/s 756 mmHg 87%
    22:00 +14°C° 0 mm 3 m/s 757 mmHg 89%
    23:00 +13°C° 0 mm 3 m/s 757 mmHg 91%

    25 Maio, Sexta-feira

    Tempo Temperatura Precipitação Vento Pressão Humidade
    00:00 +12°C° 0 mm 3 m/s 758 mmHg 90%
    01:00 +12°C° 0 mm 3 m/s 758 mmHg 89%
    02:00 +11°C° 0 mm 3 m/s 758 mmHg 87%
    03:00 +10°C° 0 mm 3 m/s 759 mmHg 85%
    04:00 +10°C° 0 mm 3 m/s 759 mmHg 83%
    05:00 +10°C° 0 mm 3 m/s 759 mmHg 80%
    06:00 +11°C° 0 mm 3 m/s 760 mmHg 72%
    07:00 +12°C° 0 mm 3 m/s 760 mmHg 64%
    08:00 +14°C° 0 mm 3 m/s 760 mmHg 56%
    09:00 +16°C° 0 mm 3 m/s 760 mmHg 51%
    10:00 +17°C° 0 mm 3 m/s 760 mmHg 46%
    11:00 +18°C° 0 mm 3 m/s 760 mmHg 42%
    12:00 +18°C° 0 mm 3 m/s 760 mmHg 41%
    13:00 +19°C° 0 mm 3 m/s 760 mmHg 40%
    14:00 +19°C° 0 mm 3 m/s 760 mmHg 39%
    15:00 +19°C° 0 mm 3 m/s 760 mmHg 40%
    16:00 +19°C° 0 mm 3 m/s 760 mmHg 41%
    17:00 +18°C° 0 mm 3 m/s 760 mmHg 42%
    18:00 +17°C° 0 mm 3 m/s 760 mmHg 50%
    19:00 +15°C° 0 mm 2 m/s 760 mmHg 58%
    20:00 +13°C° 0 mm 2 m/s 760 mmHg 65%
    21:00 +12°C° 0 mm 2 m/s 761 mmHg 67%
    22:00 +10°C° 0 mm 2 m/s 761 mmHg 68%
    23:00 +8°C° 0 mm 2 m/s 761 mmHg 69%

    26 Maio, Sábado

    Tempo Temperatura Precipitação Vento Pressão Humidade
    00:00 +9°C° 0 mm 1 m/s 762 mmHg 70%
    01:00 +8°C° 0 mm 1 m/s 762 mmHg 71%
    02:00 +8°C° 0 mm 1 m/s 762 mmHg 71%
    03:00 +8°C° 0 mm 1 m/s 763 mmHg 71%
    04:00 +7°C° 0 mm 0 m/s 763 mmHg 71%
    05:00 +8°C° 0 mm 0 m/s 763 mmHg 71%
    06:00 +10°C° 0 mm 0 m/s 763 mmHg 63%
    07:00 +13°C° 0 mm 0 m/s 763 mmHg 55%
    08:00 +15°C° 0 mm 0 m/s 764 mmHg 47%
    09:00 +17°C° 0 mm 0 m/s 763 mmHg 43%
    10:00 +18°C° 0 mm 0 m/s 763 mmHg 39%
    11:00 +20°C° 0 mm 0 m/s 763 mmHg 35%
    12:00 +20°C° 0 mm 0 m/s 763 mmHg 35%
    13:00 +21°C° 0 mm 0 m/s 762 mmHg 35%
    14:00 +21°C° 0 mm 0 m/s 762 mmHg 34%
    15:00 +23°C° 0 mm 1 m/s 762 mmHg 36%
    16:00 +22°C° 0 mm 1 m/s 762 mmHg 38%
    17:00 +22°C° 0 mm 1 m/s 761 mmHg 39%
    18:00 +20°C° 0 mm 1 m/s 761 mmHg 47%
    19:00 +16°C° 0 mm 1 m/s 761 mmHg 55%
    20:00 +14°C° 0 mm 1 m/s 761 mmHg 63%
    21:00 +14°C° 0 mm 1 m/s 761 mmHg 64%
    22:00 +13°C° 0 mm 1 m/s 761 mmHg 65%
    23:00 +12°C° 0 mm 1 m/s 761 mmHg 67%
    Mostrar mais